DAL773 KJFK-KLAX

Flight info

Callsign DAL773
Flight time N/A
Altitude 36000
Route DCT RBV Q430 AIR J80 SAAGS/N0479F380 J80 MCI J24 SLN J102 ALS J44 RSK J64 TBC DCT JASSE Q90 DNERO ANJLL4
Aircraft L101/H-SDFGHIRWXY/S

Departure

Time 2026-05-08 20:02
Airport John F. Kennedy International Airport (KJFK)

Arrival

Time N/A
Airport Los Angeles International Airport (KLAX)
Time Latitude Longitude Altitude Speed Heading
2026-05-08 18:58 40.63845 -73.78041 28 ft 0 kts 263°
2026-05-08 19:45 40.63847 -73.78021 27 ft 3 kts 263°
2026-05-08 19:46 40.63850 -73.77985 25 ft 3 kts 263°
2026-05-08 19:46 40.63853 -73.77955 25 ft 4 kts 249°
2026-05-08 19:46 40.63856 -73.77945 27 ft 0 kts 227°
2026-05-08 19:53 40.63852 -73.77948 27 ft 1 kts 212°
2026-05-08 19:53 40.63841 -73.77948 27 ft 3 kts 171°
2026-05-08 19:53 40.63808 -73.77937 28 ft 7 kts 166°
2026-05-08 19:54 40.63748 -73.77916 28 ft 10 kts 166°
2026-05-08 19:54 40.63686 -73.77902 28 ft 8 kts 172°
2026-05-08 19:54 40.63640 -73.77894 28 ft 3 kts 173°
2026-05-08 19:54 40.63632 -73.77893 28 ft 0 kts 173°
2026-05-08 19:57 40.63620 -73.77890 38 ft 4 kts 170°
2026-05-08 19:57 40.63582 -73.77865 28 ft 8 kts 141°
2026-05-08 19:57 40.63538 -73.77815 27 ft 8 kts 173°
2026-05-08 19:57 40.63488 -73.77842 28 ft 8 kts 212°
2026-05-08 19:58 40.63433 -73.77888 29 ft 10 kts 212°
2026-05-08 19:58 40.63370 -73.77917 29 ft 9 kts 161°
2026-05-08 19:58 40.63331 -73.77858 31 ft 9 kts 121°
2026-05-08 19:58 40.63297 -73.77784 32 ft 11 kts 121°
2026-05-08 19:59 40.63252 -73.77685 32 ft 15 kts 121°
2026-05-08 19:59 40.63200 -73.77571 34 ft 14 kts 121°
2026-05-08 19:59 40.63149 -73.77457 34 ft 15 kts 121°
2026-05-08 19:59 40.63090 -73.77326 32 ft 17 kts 120°
2026-05-08 20:00 40.63026 -73.77185 30 ft 19 kts 121°
2026-05-08 20:00 40.62978 -73.77088 28 ft 8 kts 139°
2026-05-08 20:00 40.62924 -73.77103 27 ft 9 kts 212°
2026-05-08 20:00 40.62866 -73.77151 27 ft 11 kts 212°
2026-05-08 20:01 40.62826 -73.77231 29 ft 11 kts 282°
2026-05-08 20:01 40.62863 -73.77320 30 ft 11 kts 303°
2026-05-08 20:01 40.62912 -73.77424 33 ft 24 kts 301°
2026-05-08 20:01 40.63152 -73.77949 33 ft 110 kts 301°
2026-05-08 20:02 40.63675 -73.79122 177 ft 176 kts 300°
2026-05-08 20:02 40.64310 -73.80552 1324 ft 182 kts 295°
2026-05-08 20:02 40.64697 -73.82053 2653 ft 166 kts 278°
2026-05-08 20:02 40.64698 -73.83505 3441 ft 159 kts 263°
2026-05-08 20:03 40.64348 -73.84962 3932 ft 175 kts 248°
2026-05-08 20:03 40.63578 -73.86306 4350 ft 198 kts 230°
2026-05-08 20:03 40.62602 -73.87623 4985 ft 200 kts 233°
2026-05-08 20:03 40.61706 -73.89059 5570 ft 209 kts 234°
2026-05-08 20:04 40.60723 -73.90644 5807 ft 239 kts 233°
2026-05-08 20:04 40.59609 -73.92367 6478 ft 249 kts 231°
2026-05-08 20:04 40.58454 -73.94006 7604 ft 237 kts 230°
2026-05-08 20:04 40.57326 -73.95531 8665 ft 234 kts 231°
2026-05-08 20:05 40.56151 -73.97107 9205 ft 249 kts 231°
2026-05-08 20:05 40.54909 -73.98807 9599 ft 267 kts 232°
2026-05-08 20:05 40.53610 -74.00639 10085 ft 278 kts 233°
2026-05-08 20:05 40.52304 -74.02511 10630 ft 286 kts 233°
2026-05-08 20:06 40.50947 -74.04499 11032 ft 297 kts 234°
2026-05-08 20:06 40.49542 -74.06582 11308 ft 312 kts 234°
2026-05-08 20:06 40.48072 -74.08778 11502 ft 327 kts 234°
2026-05-08 20:06 40.46541 -74.11066 11804 ft 338 kts 234°
2026-05-08 20:07 40.44982 -74.13389 12379 ft 339 kts 234°
2026-05-08 20:07 40.43388 -74.15757 12726 ft 354 kts 235°
2026-05-08 20:07 40.41714 -74.18236 13302 ft 369 kts 234°
2026-05-08 20:07 40.39974 -74.20760 14169 ft 377 kts 234°
2026-05-08 20:08 40.38807 -74.22450 14725 ft 380 kts 235°
2026-05-08 20:08 40.37040 -74.25011 15987 ft 373 kts 235°
2026-05-08 20:08 40.35314 -74.27489 17454 ft 363 kts 236°
2026-05-08 20:08 40.33617 -74.29911 18576 ft 362 kts 236°
2026-05-08 20:09 40.31883 -74.32401 18953 ft 378 kts 236°
2026-05-08 20:09 40.30076 -74.35042 19208 ft 399 kts 236°
2026-05-08 20:09 40.28192 -74.37838 19508 ft 417 kts 236°
2026-05-08 20:09 40.25609 -74.41721 19961 ft 438 kts 236°
2026-05-08 20:10 40.24250 -74.43766 20430 ft 441 kts 236°
2026-05-08 20:10 40.22241 -74.46695 22225 ft 419 kts 236°
2026-05-08 20:10 40.20545 -74.49603 24197 ft 387 kts 245°
2026-05-08 20:10 40.19389 -74.52661 25608 ft 365 kts 255°
2026-05-08 20:11 40.18687 -74.55814 26502 ft 360 kts 263°
2026-05-08 20:11 40.18307 -74.59035 26786 ft 370 kts 268°
2026-05-08 20:11 40.18132 -74.62467 26826 ft 386 kts 270°
2026-05-08 20:11 40.18071 -74.66036 27003 ft 399 kts 271°
2026-05-08 20:12 40.18039 -74.69684 27716 ft 399 kts 271°
2026-05-08 20:12 40.17972 -74.73302 28537 ft 399 kts 270°
2026-05-08 20:12 40.17843 -74.76972 28958 ft 407 kts 269°
2026-05-08 20:12 40.17639 -74.80647 29841 ft 403 kts 268°
2026-05-08 20:13 40.17378 -74.84283 30671 ft 400 kts 267°
2026-05-08 20:13 40.17077 -74.87891 31381 ft 397 kts 267°
2026-05-08 20:13 40.16755 -74.91473 32068 ft 395 kts 267°
2026-05-08 20:13 40.16425 -74.95019 32765 ft 392 kts 267°
2026-05-08 20:14 40.16098 -74.98536 33420 ft 389 kts 267°
2026-05-08 20:14 40.15779 -75.02046 34030 ft 387 kts 267°
2026-05-08 20:14 40.15470 -75.05529 34453 ft 385 kts 267°
2026-05-08 20:14 40.15170 -75.08995 34910 ft 383 kts 267°
2026-05-08 20:15 40.14874 -75.12455 35329 ft 383 kts 267°
2026-05-08 20:15 40.14584 -75.15887 35664 ft 386 kts 267°
2026-05-08 20:15 40.14290 -75.19391 35842 ft 388 kts 267°
2026-05-08 20:15 40.13997 -75.22889 35912 ft 389 kts 266°
2026-05-08 20:16 40.13405 -75.29931 35942 ft 389 kts 266°
2026-05-08 20:16 40.12810 -75.36953 35951 ft 388 kts 266°
2026-05-08 20:17 40.12211 -75.43968 35951 ft 388 kts 266°
2026-05-08 20:17 40.11608 -75.50981 35949 ft 388 kts 266°
2026-05-08 20:18 40.11006 -75.57950 35950 ft 388 kts 266°